Retour au catalogue

H-2A R/B

ActifGTO
NORAD 42918·ROCKET BODY·🇯🇵 Japan

Lancé Aug 19, 2017 depuis Tanegashima Space Center

Loading…

TLE

VieillissantSource: Space-Track

Époque: Sep 14, 2026, 07:11 UTC

1 42918U 17048B   26257.29943940  .00002086  00000-0  80990-3 0  9991
2 42918  19.3955 192.4405 7144551  79.2609 347.4622  2.44240993 78014

Suivez H-2A R/B en temps réel avec AllMySat

Download on the App Store